• In Österreich
  • Länderverzeichnis
  • Für 7 Tage
  • Wassertemperatur
  • Satellitenkarten
  • Wetterkarte
  • News
  • Widgets
  • user-avatar
    Anmelden

    Stündliche Wetter Pogorelka

    Heute, 13 November, Dienstag

    Zeit Temperatur Niederschläge Wind Luftdruck Luftfeuchtigkeit
    00:00 -7°C° 0 mm 5 m/S 765 mmHg 47%
    01:00 -7°C° 0 mm 5 m/S 765 mmHg 46%
    02:00 -8°C° 0 mm 6 m/S 764 mmHg 48%
    03:00 -8°C° 0 mm 6 m/S 764 mmHg 47%
    04:00 -8°C° 0 mm 6 m/S 763 mmHg 46%
    05:00 -8°C° 0 mm 6 m/S 763 mmHg 46%
    06:00 -8°C° 0 mm 6 m/S 763 mmHg 45%
    07:00 -8°C° 0 mm 6 m/S 762 mmHg 44%
    08:00 -8°C° 0 mm 7 m/S 762 mmHg 42%
    09:00 -7°C° 0 mm 7 m/S 762 mmHg 40%
    10:00 -6°C° 0 mm 7 m/S 761 mmHg 38%
    11:00 -6°C° 0 mm 7 m/S 761 mmHg 36%
    12:00 -5°C° 0 mm 8 m/S 760 mmHg 34%
    13:00 -5°C° 0 mm 8 m/S 759 mmHg 32%
    14:00 -5°C° 0 mm 8 m/S 759 mmHg 30%
    15:00 -4°C° 0 mm 7 m/S 759 mmHg 29%
    16:00 -3°C° 0 mm 7 m/S 758 mmHg 28%
    17:00 -3°C° 0 mm 7 m/S 758 mmHg 27%
    18:00 -4°C° 0 mm 7 m/S 758 mmHg 29%
    19:00 -4°C° 0 mm 7 m/S 757 mmHg 31%
    20:00 -4°C° 0 mm 7 m/S 757 mmHg 32%
    21:00 -4°C° 0 mm 7 m/S 756 mmHg 35%
    22:00 -4°C° 0 mm 7 m/S 756 mmHg 37%
    23:00 -4°C° 0 mm 7 m/S 756 mmHg 40%

    Morgen, 14 November, Mittwoch

    Zeit Temperatur Niederschläge Wind Luftdruck Luftfeuchtigkeit
    00:00 -4°C° 0.1 mm 7 m/S 755 mmHg 43%
    01:00 -4°C° 0.1 mm 6 m/S 755 mmHg 45%
    02:00 -4°C° 0.1 mm 6 m/S 755 mmHg 48%
    03:00 -4°C° 0 mm 6 m/S 754 mmHg 48%
    04:00 -4°C° 0 mm 6 m/S 754 mmHg 48%
    05:00 -4°C° 0 mm 6 m/S 753 mmHg 49%
    06:00 -4°C° 0 mm 6 m/S 753 mmHg 50%
    07:00 -4°C° 0 mm 5 m/S 753 mmHg 52%
    08:00 -4°C° 0 mm 5 m/S 753 mmHg 54%
    09:00 -4°C° 0 mm 5 m/S 753 mmHg 54%
    10:00 -4°C° 0 mm 5 m/S 753 mmHg 54%
    11:00 -2°C° 0 mm 5 m/S 753 mmHg 54%
    12:00 -2°C° 0 mm 5 m/S 753 mmHg 55%
    13:00 -2°C° 0 mm 4 m/S 753 mmHg 56%
    14:00 -2°C° 0 mm 4 m/S 753 mmHg 57%
    15:00 -2°C° 0 mm 4 m/S 754 mmHg 60%
    16:00 -2°C° 0 mm 3 m/S 754 mmHg 62%
    17:00 -2°C° 0 mm 3 m/S 754 mmHg 64%
    18:00 -2°C° 0 mm 3 m/S 755 mmHg 66%
    19:00 -2°C° 0 mm 3 m/S 755 mmHg 68%
    20:00 -2°C° 0 mm 3 m/S 755 mmHg 69%
    21:00 -4°C° 0 mm 3 m/S 756 mmHg 72%
    22:00 -4°C° 0 mm 3 m/S 756 mmHg 75%
    23:00 -3°C° 0 mm 2 m/S 756 mmHg 77%

    übermorgen, 15 November, Donnerstag

    Zeit Temperatur Niederschläge Wind Luftdruck Luftfeuchtigkeit
    00:00 -3°C° 0 mm 2 m/S 757 mmHg 80%
    01:00 -3°C° 0 mm 2 m/S 757 mmHg 82%
    02:00 -3°C° 0 mm 2 m/S 758 mmHg 84%
    03:00 -3°C° 0 mm 2 m/S 758 mmHg 85%
    04:00 -3°C° 0 mm 2 m/S 758 mmHg 86%
    05:00 -3°C° 0 mm 2 m/S 758 mmHg 87%
    06:00 -3°C° 0 mm 2 m/S 759 mmHg 88%
    07:00 -3°C° 0 mm 2 m/S 759 mmHg 88%
    08:00 -3°C° 0 mm 2 m/S 760 mmHg 89%
    09:00 -2°C° 0 mm 2 m/S 760 mmHg 85%
    10:00 -1°C° 0 mm 2 m/S 760 mmHg 82%
    11:00 -1°C° 0 mm 2 m/S 761 mmHg 78%
    12:00 -1°C° 0 mm 2 m/S 761 mmHg 79%
    13:00 -1°C° 0 mm 2 m/S 761 mmHg 80%
    14:00 +1°C° 0 mm 1 m/S 761 mmHg 81%
    15:00 +1°C° 0 mm 1 m/S 762 mmHg 83%
    16:00 -2°C° 0 mm 2 m/S 762 mmHg 84%
    17:00 -2°C° 0 mm 2 m/S 762 mmHg 86%
    18:00 -2°C° 0 mm 2 m/S 762 mmHg 88%
    19:00 -3°C° 0 mm 2 m/S 763 mmHg 89%
    20:00 -3°C° 0 mm 2 m/S 763 mmHg 90%
    21:00 -3°C° 0 mm 2 m/S 763 mmHg 91%
    22:00 -3°C° 0 mm 2 m/S 763 mmHg 91%
    23:00 -3°C° 0 mm 2 m/S 764 mmHg 92%

    16 November, Freitag

    Zeit Temperatur Niederschläge Wind Luftdruck Luftfeuchtigkeit
    00:00 -3°C° 0 mm 2 m/S 764 mmHg 92%
    01:00 -3°C° 0 mm 2 m/S 764 mmHg 92%
    02:00 -3°C° 0 mm 2 m/S 764 mmHg 92%
    03:00 -3°C° 0 mm 2 m/S 764 mmHg 92%
    04:00 -3°C° 0 mm 2 m/S 764 mmHg 92%
    05:00 -2°C° 0 mm 2 m/S 764 mmHg 92%
    06:00 -2°C° 0 mm 2 m/S 764 mmHg 92%
    07:00 -2°C° 0 mm 2 m/S 764 mmHg 92%
    08:00 -2°C° 0 mm 2 m/S 765 mmHg 92%
    09:00 -1°C° 0 mm 3 m/S 765 mmHg 89%
    10:00 -1°C° 0 mm 3 m/S 765 mmHg 87%
    11:00 0°C° 0 mm 3 m/S 765 mmHg 85%
    12:00 0°C° 0 mm 3 m/S 765 mmHg 85%
    13:00 0°C° 0 mm 3 m/S 764 mmHg 85%
    14:00 0°C° 0 mm 3 m/S 764 mmHg 86%
    15:00 -1°C° 0 mm 3 m/S 764 mmHg 88%
    16:00 -1°C° 0 mm 3 m/S 764 mmHg 91%
    17:00 -2°C° 0 mm 3 m/S 764 mmHg 94%
    18:00 -2°C° 0 mm 3 m/S 764 mmHg 94%
    19:00 -2°C° 0 mm 3 m/S 764 mmHg 94%
    20:00 -2°C° 0 mm 3 m/S 764 mmHg 94%
    21:00 -2°C° 0 mm 3 m/S 764 mmHg 95%
    22:00 -2°C° 0 mm 3 m/S 764 mmHg 95%
    23:00 -2°C° 0 mm 3 m/S 763 mmHg 95%

    17 November, Samstag

    Zeit Temperatur Niederschläge Wind Luftdruck Luftfeuchtigkeit
    00:00 -2°C° 0 mm 3 m/S 763 mmHg 95%
    01:00 -2°C° 0 mm 3 m/S 763 mmHg 95%
    02:00 -2°C° 0 mm 3 m/S 763 mmHg 95%
    03:00 -2°C° 0 mm 3 m/S 762 mmHg 95%
    04:00 -2°C° 0 mm 3 m/S 762 mmHg 95%
    05:00 -2°C° 0 mm 3 m/S 762 mmHg 95%
    06:00 -1°C° 0 mm 3 m/S 761 mmHg 95%
    07:00 -1°C° 0 mm 3 m/S 761 mmHg 95%
    08:00 0°C° 0 mm 3 m/S 760 mmHg 94%
    09:00 0°C° 0 mm 3 m/S 760 mmHg 93%
    10:00 0°C° 0 mm 3 m/S 759 mmHg 92%
    11:00 0°C° 0 mm 4 m/S 759 mmHg 91%
    12:00 0°C° 0 mm 4 m/S 758 mmHg 92%
    13:00 0°C° 0 mm 4 m/S 757 mmHg 92%
    14:00 0°C° 0 mm 4 m/S 757 mmHg 92%
    15:00 0°C° 0 mm 4 m/S 756 mmHg 93%
    16:00 0°C° 0 mm 4 m/S 755 mmHg 93%
    17:00 0°C° 0 mm 4 m/S 754 mmHg 93%
    18:00 0°C° 0.1 mm 4 m/S 754 mmHg 93%
    19:00 0°C° 0.1 mm 4 m/S 753 mmHg 93%
    20:00 +1°C° 0.1 mm 4 m/S 752 mmHg 94%
    21:00 +1°C° 0.1 mm 4 m/S 752 mmHg 93%
    22:00 +1°C° 0.1 mm 4 m/S 751 mmHg 93%
    23:00 0°C° 0.1 mm 4 m/S 750 mmHg 93%

    18 November, Sonntag

    Zeit Temperatur Niederschläge Wind Luftdruck Luftfeuchtigkeit
    00:00 0°C° 0.1 mm 4 m/S 750 mmHg 93%
    01:00 0°C° 0.1 mm 4 m/S 749 mmHg 92%
    02:00 0°C° 0.1 mm 4 m/S 749 mmHg 92%
    03:00 0°C° 0.2 mm 5 m/S 748 mmHg 91%
    04:00 0°C° 0.2 mm 5 m/S 748 mmHg 90%
    05:00 0°C° 0.2 mm 5 m/S 747 mmHg 89%
    06:00 0°C° 0.3 mm 5 m/S 747 mmHg 89%
    07:00 +1°C° 0.3 mm 5 m/S 748 mmHg 88%
    08:00 +1°C° 0.3 mm 5 m/S 748 mmHg 88%
    09:00 +1°C° 0.3 mm 6 m/S 748 mmHg 87%
    10:00 +1°C° 0.3 mm 6 m/S 749 mmHg 85%
    11:00 0°C° 0.3 mm 7 m/S 749 mmHg 84%
    12:00 0°C° 0.1 mm 7 m/S 750 mmHg 84%
    13:00 +1°C° 0.1 mm 6 m/S 751 mmHg 83%
    14:00 -1°C° 0.1 mm 6 m/S 751 mmHg 83%
    15:00 -1°C° 0 mm 6 m/S 752 mmHg 83%
    16:00 -1°C° 0 mm 6 m/S 753 mmHg 83%
    17:00 -2°C° 0 mm 6 m/S 753 mmHg 83%
    18:00 -2°C° 0.1 mm 6 m/S 754 mmHg 82%
    19:00 -2°C° 0.1 mm 6 m/S 754 mmHg 82%
    20:00 -3°C° 0.1 mm 6 m/S 755 mmHg 81%
    21:00 -3°C° 0.1 mm 6 m/S 755 mmHg 81%
    22:00 -3°C° 0.1 mm 6 m/S 756 mmHg 80%
    23:00 -4°C° 0.1 mm 6 m/S 756 mmHg 80%
    Mehr zeigen